| time (UTC) | temp C | wind direction | speed KPH | gust KPH | rain 1hr cm | rain 24hr cm | rain mn cm | humidity % | barometer mb |
| 20260508095017 | 13 | 90 | 3.2 | 6.4 | 0.00 | 0.18 | 0.00 | 91 | 1015.6 |
| 20260508094017 | 13 | 0.0 | 0.0 | 0.00 | 0.18 | 0.00 | 91 | 1015.8 | |
| 20260508093022 | 13 | 139 | 1.6 | 0.0 | 0.00 | 0.18 | 0.00 | 90 | 1015.5 |
| 20260508092015 | 13 | 112 | 3.2 | 6.4 | 0.00 | 0.18 | 0.00 | 90 | 1015.8 |
| 20260508085017 | 13 | 135 | 4.8 | 9.7 | 0.00 | 0.18 | 0.00 | 90 | 1015.6 |
| 20260508084117 | 13 | 135 | 4.8 | 9.7 | 0.00 | 0.18 | 0.00 | 90 | 1015.6 |
| 20260508083017 | 13 | 112 | 8.0 | 14.5 | 0.00 | 0.18 | 0.00 | 90 | 1015.0 |
| 20260508082017 | 13 | 112 | 6.4 | 11.3 | 0.00 | 0.18 | 0.00 | 90 | 1015.2 |
| 20260508081015 | 13 | 112 | 6.4 | 12.9 | 0.00 | 0.18 | 0.00 | 90 | 1015.2 |
| 20260508080015 | 13 | 112 | 4.8 | 8.0 | 0.00 | 0.18 | 0.00 | 90 | 1015.3 |
| 20260508075015 | 13 | 112 | 8.0 | 11.3 | 0.00 | 0.18 | 0.00 | 90 | 1015.3 |
| 20260508074015 | 13 | 112 | 4.8 | 8.0 | 0.00 | 0.18 | 0.00 | 90 | 1015.5 |
| 20260508073015 | 13 | 135 | 4.8 | 6.4 | 0.00 | 0.18 | 0.00 | 89 | 1015.8 |
| 20260508072015 | 13 | 135 | 4.8 | 8.0 | 0.00 | 0.18 | 0.00 | 88 | 1016.1 |
| 20260508070015 | 13 | 135 | 6.4 | 14.5 | 0.00 | 0.18 | 0.00 | 88 | 1015.8 |
| 20260508065015 | 13 | 112 | 6.4 | 11.3 | 0.00 | 0.18 | 0.00 | 88 | 1015.6 |
| 20260508064035 | 13 | 112 | 6.4 | 14.5 | 0.00 | 0.18 | 0.00 | 88 | 1015.6 |
| 20260508063015 | 13 | 112 | 4.8 | 8.0 | 0.00 | 0.18 | 0.00 | 88 | 1015.6 |
| 20260508062035 | 13 | 90 | 6.4 | 11.3 | 0.00 | 0.18 | 0.00 | 88 | 1015.4 |
| 20260508061015 | 13 | 90 | 8.0 | 9.7 | 0.00 | 0.18 | 0.00 | 88 | 1015.4 |
| 20260508060015 | 13 | 67 | 8.0 | 11.3 | 0.00 | 0.18 | 0.00 | 88 | 1015.4 |
| 20260508055015 | 13 | 67 | 9.7 | 14.5 | 0.00 | 0.18 | 0.00 | 88 | 1015.5 |
| 20260508054015 | 13 | 90 | 6.4 | 9.7 | 0.00 | 0.18 | 0.00 | 88 | 1015.8 |
| 20260508053015 | 13 | 90 | 4.8 | 8.0 | 0.00 | 0.18 | 0.00 | 88 | 1015.8 |
| 20260508052015 | 13 | 90 | 6.4 | 11.3 | 0.00 | 0.18 | 0.00 | 88 | 1016.0 |
| 20260508051015 | 13 | 112 | 6.4 | 9.7 | 0.00 | 0.18 | 0.00 | 88 | 1016.1 |
| 20260508050015 | 13 | 90 | 8.0 | 11.3 | 0.00 | 0.18 | 0.18 | 88 | 1016.0 |
| 20260508045017 | 13 | 90 | 4.8 | 9.7 | 0.00 | 0.18 | 0.18 | 88 | 1016.2 |
| 20260508044017 | 13 | 90 | 4.8 | 8.0 | 0.00 | 0.18 | 0.18 | 88 | 1016.3 |
| 20260508043017 | 14 | 90 | 6.4 | 9.7 | 0.00 | 0.18 | 0.18 | 88 | 1016.2 |
| 20260508042117 | 14 | 67 | 9.7 | 14.5 | 0.00 | 0.18 | 0.18 | 90 | 1016.2 |
| 20260508041017 | 14 | 67 | 6.4 | 9.7 | 0.00 | 0.18 | 0.18 | 90 | 1016.5 |
| 20260508040017 | 14 | 67 | 4.8 | 6.4 | 0.00 | 0.18 | 0.18 | 91 | 1016.7 |
| 20260508035017 | 14 | 67 | 6.4 | 9.7 | 0.00 | 0.18 | 0.18 | 90 | 1016.4 |
| 20260508034016 | 14 | 67 | 3.2 | 8.0 | 0.00 | 0.18 | 0.18 | 90 | 1016.7 |
| 20260508033017 | 14 | 45 | 4.8 | 8.0 | 0.00 | 0.18 | 0.18 | 90 | 1016.1 |
| 20260508032017 | 14 | 67 | 6.4 | 11.3 | 0.00 | 0.18 | 0.18 | 90 | 1016.2 |
| 20260508031017 | 14 | 45 | 8.0 | 11.3 | 0.00 | 0.18 | 0.18 | 89 | 1016.1 |
| 20260508030017 | 14 | 67 | 6.4 | 12.9 | 0.00 | 0.18 | 0.18 | 88 | 1015.9 |
| 20260508025017 | 14 | 90 | 11.3 | 17.7 | 0.00 | 0.18 | 0.18 | 89 | 1015.4 |
| 20260508024017 | 14 | 112 | 4.8 | 8.0 | 0.00 | 0.18 | 0.18 | 90 | 1016.1 |
| 20260508023016 | 15 | 90 | 4.8 | 8.0 | 0.00 | 0.18 | 0.18 | 90 | 1016.0 |
| 20260508022016 | 15 | 0.0 | 3.2 | 0.00 | 0.18 | 0.18 | 90 | 1016.5 | |
| 20260508021016 | 15 | 225 | 4.8 | 8.0 | 0.00 | 0.18 | 0.18 | 89 | 1016.0 |
| 20260508015117 | 15 | 135 | 3.2 | 4.8 | 0.00 | 0.18 | 0.18 | 88 | 1016.4 |
| 20260508014016 | 15 | 45 | 3.2 | 6.4 | 0.00 | 0.18 | 0.18 | 87 | 1015.5 |
| 20260508013017 | 15 | 315 | 3.2 | 6.4 | 0.00 | 0.18 | 0.18 | 86 | 1015.6 |
| 20260508012016 | 15 | 337 | 6.4 | 9.7 | 0.00 | 0.18 | 0.18 | 85 | 1016.3 |
| 20260508011138 | 15 | 90 | 6.4 | 11.3 | 0.00 | 0.18 | 0.18 | 85 | 1015.4 |
| 20260508010016 | 15 | 67 | 8.0 | 12.9 | 0.00 | 0.18 | 0.18 | 84 | 1014.7 |
| 20260508005017 | 15 | 45 | 6.4 | 12.9 | 0.00 | 0.18 | 0.18 | 83 | 1015.3 |
| 20260508004118 | 15 | 90 | 8.0 | 14.5 | 0.00 | 0.18 | 0.18 | 82 | 1015.3 |
| 20260508003016 | 15 | 67 | 6.4 | 9.7 | 0.00 | 0.18 | 0.18 | 82 | 1015.7 |
| 20260508002016 | 15 | 67 | 11.3 | 16.1 | 0.00 | 0.18 | 0.18 | 82 | 1015.4 |
| 20260508001016 | 15 | 67 | 12.9 | 19.3 | 0.00 | 0.18 | 0.18 | 82 | 1015.2 |
| 20260508000017 | 15 | 90 | 9.7 | 17.7 | 0.00 | 0.18 | 0.18 | 82 | 1015.1 |
| 20260507235016 | 15 | 67 | 17.7 | 24.1 | 0.03 | 0.18 | 0.18 | 80 | 1014.9 |
| 20260507234117 | 15 | 67 | 14.5 | 24.1 | 0.03 | 0.18 | 0.18 | 80 | 1015.8 |
| 20260507233016 | 15 | 90 | 17.7 | 25.7 | 0.03 | 0.18 | 0.18 | 79 | 1015.5 |
| 20260507232016 | 15 | 67 | 11.3 | 19.3 | 0.03 | 0.18 | 0.18 | 79 | 1016.2 |
| 20260507231116 | 15 | 67 | 14.5 | 20.9 | 0.03 | 0.18 | 0.18 | 80 | 1016.3 |
| 20260507230016 | 15 | 90 | 16.1 | 27.4 | 0.03 | 0.18 | 0.18 | 81 | 1015.6 |
| 20260507225016 | 15 | 67 | 16.1 | 24.1 | 0.00 | 0.15 | 0.15 | 81 | 1016.1 |
| 20260507224016 | 15 | 90 | 9.7 | 14.5 | 0.00 | 0.15 | 0.15 | 81 | 1017.0 |
| 20260507223117 | -17 | 67 | 16.1 | 24.1 | 0.00 | 0.15 | 0.15 | ||
| 20260507222016 | -17 | 67 | 19.3 | 27.4 | 0.00 | 0.15 | 0.15 | ||
| 20260507221016 | -17 | 67 | 14.5 | 22.5 | 0.00 | 0.15 | 0.15 | ||
| 20260507220136 | 15 | 67 | 19.3 | 30.6 | 0.00 | 0.15 | 0.15 | 85 | 1016.4 |
| 20260507215015 | 15 | 67 | 19.3 | 25.7 | 0.00 | 0.15 | 0.15 | 85 | 1016.8 |
| 20260507214016 | 15 | 67 | 16.1 | 22.5 | 0.00 | 0.15 | 0.15 | 86 | 1017.2 |
| 20260507213018 | 14 | 67 | 16.1 | 22.5 | 0.00 | 0.15 | 0.15 | 86 | 1017.2 |
| 20260507212116 | 14 | 67 | 16.1 | 22.5 | 0.00 | 0.15 | 0.15 | 86 | 1017.6 |
| 20260507211016 | 14 | 67 | 17.7 | 27.4 | 0.00 | 0.15 | 0.15 | 85 | 1017.5 |
| 20260507210017 | 14 | 67 | 17.7 | 30.6 | 0.00 | 0.15 | 0.15 | 84 | 1018.0 |
| 20260507205016 | 14 | 67 | 16.1 | 25.7 | 0.00 | 0.15 | 0.15 | 87 | 1017.9 |
| 20260507204016 | 14 | 67 | 19.3 | 37.0 | 0.00 | 0.15 | 0.15 | 88 | 1017.7 |
| 20260507203016 | 13 | 67 | 24.1 | 32.2 | 0.00 | 0.15 | 0.15 | 91 | 1017.4 |
| 20260507202016 | 13 | 45 | 19.3 | 30.6 | 0.00 | 0.15 | 0.15 | 93 | 1017.9 |
| 20260507201016 | 13 | 45 | 20.9 | 29.0 | 0.00 | 0.15 | 0.15 | 92 | 1018.3 |
| 20260507200016 | 13 | 67 | 16.1 | 22.5 | 0.00 | 0.15 | 0.15 | 93 | 1018.1 |
| 20260507194017 | 13 | 67 | 22.5 | 29.0 | 0.00 | 0.15 | 0.15 | 95 | 1017.7 |
| 20260507193137 | 13 | 67 | 17.7 | 24.1 | 0.00 | 0.15 | 0.15 | 96 | 1018.2 |
| 20260507192016 | 13 | 67 | 22.5 | 29.0 | 0.00 | 0.15 | 0.15 | 96 | 1018.1 |
| 20260507191116 | 12 | 90 | 17.7 | 25.7 | 0.00 | 0.15 | 0.15 | 97 | 1017.8 |
| 20260507190016 | 12 | 67 | 17.7 | 25.7 | 0.00 | 0.15 | 0.15 | 98 | 1018.4 |
| 20260507185016 | 12 | 67 | 12.9 | 25.7 | 0.00 | 0.15 | 0.15 | 98 | 1018.4 |
| 20260507184017 | 12 | 67 | 22.5 | 30.6 | 0.03 | 0.15 | 0.15 | 98 | 1018.0 |
| 20260507183137 | 12 | 67 | 20.9 | 27.4 | 0.05 | 0.15 | 0.15 | 99 | 1018.1 |
| 20260507182017 | 12 | 67 | 19.3 | 30.6 | 0.05 | 0.15 | 0.15 | 99 | 1018.1 |
| 20260507181016 | 12 | 67 | 11.3 | 17.7 | 0.05 | 0.23 | 0.15 | 99 | 1019.5 |
| 20260507180016 | 12 | 22 | 12.9 | 22.5 | 0.05 | 0.23 | 0.15 | 99 | 1019.0 |
| 20260507175016 | 11 | 22 | 9.7 | 17.7 | 0.05 | 0.23 | 0.15 | 99 | 1019.5 |
| 20260507174117 | 11 | 45 | 9.7 | 16.1 | 0.03 | 0.20 | 0.13 | 99 | 1019.3 |
| 20260507173117 | 11 | 45 | 8.0 | 16.1 | 0.00 | 0.18 | 0.10 | 99 | 1019.3 |
| 20260507172017 | 11 | 67 | 11.3 | 20.9 | 0.00 | 0.18 | 0.10 | 99 | 1018.2 |
| 20260507171016 | 11 | 45 | 19.3 | 24.1 | 0.00 | 0.18 | 0.10 | 99 | 1017.9 |
| 20260507170016 | 11 | 45 | 17.7 | 27.4 | 0.00 | 0.18 | 0.10 | 99 | 1017.9 |
| 20260507165018 | 11 | 45 | 19.3 | 24.1 | 0.00 | 0.43 | 0.10 | 99 | 1017.9 |
| 20260507163022 | 11 | 67 | 27.4 | 37.0 | 0.03 | 0.43 | 0.10 | 99 | 1017.6 |
| 20260507162016 | 11 | 67 | 24.1 | 37.0 | 0.03 | 0.43 | 0.10 | 99 | 1018.0 |
| 20260507161016 | 11 | 67 | 19.3 | 25.7 | 0.05 | 0.43 | 0.10 | 99 | 1018.6 |
| 20260507160017 | 11 | 45 | 16.1 | 27.4 | 0.08 | 0.43 | 0.10 | 99 | 1018.7 |
| 20260507155016 | 11 | 90 | 14.5 | 22.5 | 0.08 | 0.43 | 0.10 | 99 | 1019.1 |
| 20260507154017 | 11 | 90 | 14.5 | 32.2 | 0.08 | 0.43 | 0.10 | 99 | 1018.4 |
| 20260507153016 | 11 | 45 | 30.6 | 45.1 | 0.05 | 0.41 | 0.08 | 99 | 1017.2 |
| 20260507152016 | 11 | 67 | 14.5 | 22.5 | 0.08 | 0.41 | 0.08 | 99 | 1019.3 |
| 20260507151018 | 11 | 67 | 11.3 | 27.4 | 0.05 | 0.38 | 0.05 | 99 | 1019.4 |
| 20260507150016 | 10 | 90 | 22.5 | 33.8 | 0.03 | 0.36 | 0.03 | 99 | |
| 20260507145017 | 10 | 45 | 20.9 | 27.4 | 0.03 | 0.36 | 0.03 | 99 | 1019.2 |
| 20260507144016 | 10 | 67 | 20.9 | 37.0 | 0.03 | 0.36 | 0.03 | 99 | 1018.4 |
| 20260507143017 | 11 | 45 | 27.4 | 35.4 | 0.03 | 0.46 | 0.03 | 99 | 1018.2 |
| 20260507142016 | 11 | 45 | 24.1 | 38.6 | 0.00 | 0.56 | 0.00 | 99 | 1018.1 |
| 20260507140017 | 11 | 45 | 27.4 | 38.6 | 0.00 | 0.58 | 0.00 | 99 | 1018.4 |
| 20260507135017 | 11 | 45 | 25.7 | 38.6 | 0.00 | 0.58 | 0.00 | 99 | 1018.1 |
| 20260507134017 | 11 | 45 | 16.1 | 24.1 | 0.00 | 0.58 | 0.00 | 99 | |
| 20260507133016 | 11 | 67 | 20.9 | 29.0 | 0.00 | 0.58 | 0.00 | 99 | |
| 20260507132017 | 11 | 45 | 27.4 | 37.0 | 0.00 | 0.58 | 0.00 | 99 | |
| 20260507131016 | 11 | 45 | 22.5 | 29.0 | 0.00 | 0.58 | 0.00 | 99 | 1018.4 |
| 20260507130016 | 11 | 45 | 24.1 | 35.4 | 0.00 | 0.58 | 0.00 | 99 | 1018.3 |
| 20260507125016 | 11 | 45 | 20.9 | 32.2 | 0.00 | 0.58 | 0.00 | 99 | 1018.3 |
| 20260507124016 | 11 | 45 | 22.5 | 33.8 | 0.00 | 0.58 | 0.00 | 99 | 1018.0 |
| 20260507123117 | 11 | 45 | 20.9 | 30.6 | 0.00 | 0.58 | 0.00 | 99 | 1017.4 |
| 20260507122017 | 11 | 45 | 20.9 | 27.4 | 0.00 | 0.58 | 0.00 | 99 | 1017.4 |
| 20260507121016 | 11 | 45 | 22.5 | 30.6 | 0.00 | 0.58 | 0.00 | 98 | 1017.5 |
| 20260507120016 | 11 | 45 | 24.1 | 35.4 | 0.00 | 0.58 | 0.00 | 98 | 1017.5 |
| 20260507115016 | 11 | 45 | 27.4 | 40.2 | 0.00 | 0.58 | 0.00 | 98 | 1017.2 |
| 20260507114016 | 11 | 45 | 22.5 | 33.8 | 0.00 | 0.58 | 0.00 | 98 | |
| 20260507113037 | 11 | 45 | 20.9 | 35.4 | 0.00 | 0.58 | 0.00 | 98 | |
| 20260507112017 | 11 | 45 | 24.1 | 35.4 | 0.00 | 0.58 | 0.00 | 98 | 1017.1 |
| 20260507111016 | 11 | 45 | 24.1 | 35.4 | 0.00 | 0.58 | 0.00 | 98 | 1016.7 |
| 20260507110117 | 12 | 45 | 24.1 | 30.6 | 0.00 | 0.58 | 0.00 | 98 | 1016.9 |
| 20260507104017 | 12 | 45 | 20.9 | 27.4 | 0.00 | 0.58 | 0.00 | 98 | 1016.5 |
| 20260507103017 | 12 | 45 | 19.3 | 27.4 | 0.00 | 0.58 | 0.00 | 98 | 1016.7 |
| 20260507102017 | 12 | 45 | 19.3 | 25.7 | 0.00 | 0.58 | 0.00 | 98 | 1016.4 |
| 20260507101016 | 12 | 45 | 20.9 | 32.2 | 0.00 | 0.58 | 0.00 | 98 | 1016.5 |
| 20260507095117 | 12 | 45 | 19.3 | 27.4 | 0.00 | 0.58 | 0.00 | 98 |